Tracking 19563 objects as of 20-Mar-2019
HD Live streaming from Space Station
objects crossing your sky now

RADUGA 23

Track RADUGA 23 now!
RADUGA 23 is classified as:


NORAD ID: 19928
Int'l Code: 1989-030A
Perigee: 35,752.8 km
Apogee: 35,885.4 km
Inclination: 14.6 °
Period: 1,437.4 minutes
Semi major axis: 42190 km
RCS: 3.1622 m2 (large)
Launch date: April 14, 1989
Source: Commonwealth of Independent States (former USSR) (CIS)
Launch site: TYURATAM MISSILE AND SPACE COMPLEX (TTMTR)
aabbcc
Your satellite tracking list
Your tracking list is empty




NASA's NSSDC Master Catalog

Two Line Element Set (TLE):
1 19928U 89030A   19077.61862032 -.00000037 +00000-0 +00000-0 0  9992
2 19928 014.5603 353.4227 0015715 126.0810 347.0070 01.00181428108301
Source of the keplerian elements: AFSPC